Location: Burla
(50.9568°N, 10.4983°E)
Time: 23:22:07
(UTC+00:00)

Cosmos 1461 - Pass Details

Date: 18 January 2026
Orbit: 426 x 502 km, 65.0° (Epoch: 16 February)

Event Time Altitude Azimuth Distance (km) Brightness Sun altitude
Rises 06:07:00 0° 220° (SW) 2,594 6.1 -10.0°
Maximum altitude 06:13:01 89° 311° (NW) 517 2.7 -9.1°
Drops below altitude 10° 06:16:55 10° 41° (NE) 1,740 5.6 -8.5°
Sets 06:19:06 0° 41° (NE) 2,627 6.5 -8.2°
